DW3656 Weather Reports


time (UTC)temp
C
wind
direction
speed
KPH
gust
KPH
rain 1hr
cm
rain 24hr
cm
rain mn
cm
humidity
%
barometer
mb
20260507211104 10 293 3.2 3.2 0.00 0.00 0.00 1012.2
20260507210604 10 293 1.6 3.2 0.00 0.00 0.00 1012.2
20260507210105 10 294 4.8 8.0 0.00 0.00 0.00 1011.5
20260507205604 10 293 4.8 8.0 0.00 0.00 0.00 1011.5
20260507205105 10 294 4.8 8.0 0.00 0.00 0.00 1011.5
20260507204604 10 294 3.2 3.2 0.00 0.00 0.00 1011.5
20260507204104 11 294 3.2 3.2 0.00 0.00 0.00 1011.5
20260507203605 10 294 3.2 3.2 0.00 0.00 0.00 1011.5
20260507203104 11 294 4.8 8.0 0.00 0.00 0.00 1011.5
20260507202604 11 295 3.2 3.2 0.00 0.00 0.00 1011.5
20260507202105 11 294 4.8 8.0 0.00 0.00 0.00 1011.5
20260507201104 11 294 4.8 8.0 0.00 0.00 0.00 1011.5
20260507200604 11 295 1.6 8.0 0.00 0.00 0.00 1011.5
20260507195605 11 296 1.6 3.2 0.00 0.00 0.00 1011.3
20260507195104 11 295 3.2 3.2 0.00 0.00 0.00 1011.3
20260507194604 11 296 3.2 3.2 0.00 0.00 0.00 1011.3
20260507194104 11 296 4.8 8.0 0.00 0.00 0.00 1011.3
20260507193603 11 296 3.2 3.2 0.00 0.00 0.00 1011.3
20260507192104 11 298 1.6 3.2 0.00 0.00 0.00 1011.3
20260507191604 11 298 0.0 3.2 0.00 0.00 0.00 1011.3
20260507191103 11 297 1.6 3.2 0.00 0.00 0.00 1011.3
20260507190604 12 299 0.0 0.0 0.00 0.00 0.00 1011.3
20260507190105 12 299 0.0 0.0 0.00 0.00 0.00 1011.2
20260507185603 12 300 0.0 0.0 0.00 0.00 0.00 1011.2
20260507185104 12 300 0.0 0.0 0.00 0.00 0.00 1011.2
20260507184604 12 301 0.0 0.0 0.00 0.00 0.00 1011.2
20260507184104 12 301 0.0 0.0 0.00 0.00 0.00 1011.2
20260507183604 12 302 0.0 3.2 0.00 0.00 0.00 1011.2
20260507183104 12 302 1.6 8.0 0.00 0.00 0.00 1011.2
20260507182604 12 303 4.8 8.0 0.00 0.00 0.00 1011.2
20260507182104 12 303 3.2 8.0 0.00 0.00 0.00 1011.2
20260507181105 12 304 3.2 3.2 0.00 0.00 0.00 1011.2
20260507180604 13 303 0.0 8.0 0.00 0.00 0.00 1011.2
20260507175603 13 306 3.2 3.2 0.00 0.00 0.00 1011.2
20260507175104 13 306 8.0 8.0 0.00 0.00 0.00 1011.2
20260507174603 13 305 0.0 8.0 0.00 0.00 0.00 1011.2
20260507174105 13 307 4.8 8.0 0.00 0.00 0.00 1011.2
20260507173604 13 308 4.8 8.0 0.00 0.00 0.00 1011.2
20260507173104 13 306 1.6 3.2 0.00 0.00 0.00 1011.2
20260507172104 13 309 0.0 0.0 0.00 0.00 0.00 1011.2
20260507171604 13 310 0.0 0.0 0.00 0.00 0.00 1011.2
20260507171104 13 310 0.0 0.0 0.00 0.00 0.00 1011.2
20260507170603 13 311 0.0 0.0 0.00 0.00 0.00 1011.2
20260507170104 14 311 0.0 0.0 0.00 0.00 0.00 1011.6
20260507165604 14 310 0.0 0.0 0.00 0.00 0.00 1011.6
20260507165104 14 313 0.0 3.2 0.00 0.00 0.00 1011.6
20260507164604 14 313 3.2 3.2 0.00 0.00 0.00 1011.6
20260507164104 14 313 0.0 3.2 0.00 0.00 0.00 1011.6
20260507163603 14 315 1.6 3.2 0.00 0.00 0.00 1011.6
20260507163104 14 316 0.0 0.0 0.00 0.00 0.00 1011.6
20260507162604 14 317 1.6 3.2 0.00 0.00 0.00 1011.6
20260507162104 15 318 1.6 3.2 0.00 0.00 0.00 1011.6
20260507161104 15 316 0.0 3.2 0.00 0.00 0.00 1011.6
20260507160604 15 317 1.6 8.0 0.00 0.00 0.00 1011.6
20260507160105 15 320 9.7 11.3 0.00 0.00 0.00 1011.8
20260507155606 15 320 4.8 8.0 0.00 0.00 0.00 1011.8
20260507155104 15 322 8.0 8.0 0.00 0.00 0.00 1011.8
20260507154604 15 322 4.8 8.0 0.00 0.00 0.00 1011.8
20260507153604 15 322 8.0 8.0 0.00 0.00 0.00 1011.8
20260507153106 15 322 3.2 8.0 0.00 0.00 0.00 1011.8
20260507152604 15 319 4.8 8.0 0.00 0.00 0.00 1011.8
20260507152104 15 318 1.6 3.2 0.00 0.00 0.00 1011.8
20260507151604 15 319 4.8 11.3 0.00 0.00 0.00 1011.8
20260507151104 15 319 9.7 11.3 0.00 0.00 0.00 1011.8
20260507150104 15 320 1.6 8.0 0.00 0.00 0.00 1012.3
20260507145604 15 317 11.3 11.3 0.00 0.00 0.00 1012.3
20260507144604 14 316 8.0 8.0 0.00 0.00 0.00 1012.3
20260507144104 14 318 3.2 11.3 0.00 0.00 0.00 1012.3
20260507143103 14 316 4.8 8.0 0.00 0.00 0.00 1012.3
20260507142604 14 315 8.0 8.0 0.00 0.00 0.00 1012.3
20260507142104 14 315 9.7 11.3 0.00 0.00 0.00 1012.3
20260507141604 14 314 8.0 11.3 0.00 0.00 0.00 1012.3
20260507141104 14 313 0.0 8.0 0.00 0.00 0.00 1012.3
20260507140104 13 310 8.0 11.3 0.00 0.00 0.00 1012.6
20260507135604 13 310 4.8 8.0 0.00 0.00 0.00 1012.6
20260507135104 13 308 8.0 11.3 0.00 0.00 0.00 1012.6
20260507134605 13 308 9.7 11.3 0.00 0.00 0.00 1012.6
20260507134104 13 307 11.3 11.3 0.00 0.00 0.00 1012.6
20260507133604 13 306 3.2 3.2 0.00 0.00 0.00 1012.6
20260507133105 12 306 3.2 8.0 0.00 0.00 0.00 1012.6
20260507132604 12 304 4.8 8.0 0.00 0.00 0.00 1012.6
20260507132105 12 303 8.0 11.3 0.00 0.00 0.00 1012.6
20260507131604 12 303 8.0 8.0 0.00 0.00 0.00 1012.6
20260507131104 12 303 8.0 11.3 0.00 0.00 0.00 1012.6
20260507130604 12 303 8.0 11.3 0.00 0.00 0.00 1012.6
20260507124605 12 304 3.2 11.3 0.00 0.00 0.00 1012.5
20260507124104 12 304 4.8 11.3 0.00 0.00 0.00 1012.5
20260507123104 12 304 8.0 14.5 0.00 0.00 0.00 1012.5
20260507122604 12 305 11.3 14.5 0.00 0.00 0.00 1012.5
20260507122104 11 304 12.9 14.5 0.00 0.00 0.00 1012.5
20260507121605 11 306 3.2 8.0 0.00 0.00 0.00 1012.5
20260507121104 11 307 9.7 11.3 0.00 0.00 0.00 1012.5
20260507120604 12 307 4.8 8.0 0.00 0.00 0.00 1012.5
20260507120104 12 309 11.3 11.3 0.00 0.00 0.00 1012.7
20260507115603 12 309 11.3 11.3 0.00 0.00 0.00 1012.7
20260507115105 12 310 8.0 11.3 0.00 0.00 0.00 1012.7
20260507114603 12 312 8.0 11.3 0.00 0.00 0.00 1012.7
20260507114104 12 312 11.3 11.3 0.00 0.00 0.00 1012.7
20260507113106 12 315 4.8 11.3 0.00 0.00 0.00 1012.7
20260507112603 13 315 4.8 11.3 0.00 0.00 0.00 1012.7
20260507111104 13 316 9.7 11.3 0.00 0.00 0.00 1012.7
20260507110604 13 314 11.3 11.3 0.00 0.00 0.00 1012.7
20260507110104 13 314 3.2 11.3 0.00 0.00 0.00 1012.8
20260507105604 13 314 4.8 8.0 0.00 0.00 0.00 1012.8
20260507105105 13 313 4.8 8.0 0.00 0.00 0.00 1012.8
20260507104604 12 312 4.8 11.3 0.00 0.00 0.00 1012.8
20260507104106 12 312 8.0 11.3 0.00 0.00 0.00 1012.8
20260507103603 12 313 9.7 11.3 0.00 0.00 0.00 1012.8
20260507102103 12 312 9.7 11.3 0.00 0.00 0.00 1012.8
20260507101604 12 313 4.8 11.3 0.00 0.00 0.00 1012.8
20260507101104 12 311 9.7 11.3 0.00 0.00 0.00 1012.8
20260507100604 12 312 9.7 11.3 0.00 0.00 0.00 1012.8
20260507100104 12 312 8.0 11.3 0.00 0.00 0.00 1012.9
20260507095604 12 310 12.9 14.5 0.00 0.00 0.00 1012.9
20260507095104 12 311 4.8 11.3 0.00 0.00 0.00 1012.9
20260507094604 12 310 9.7 11.3 0.00 0.00 0.00 1012.9
20260507093604 12 310 3.2 3.2 0.00 0.00 0.00 1012.9
20260507093104 12 309 9.7 11.3 0.00 0.00 0.00 1012.9
20260507092605 12 308 8.0 8.0 0.00 0.00 0.00 1012.9
20260507092103 12 307 8.0 11.3 0.00 0.00 0.00 1012.9
20260507091604 12 306 4.8 8.0 0.00 0.00 0.00 1012.9
20260507091104 12 305 8.0 11.3 0.00 0.00 0.00 1012.9
20260507090105 11 304 8.0 8.0 0.00 0.00 0.00 1012.8
20260507085603 11 303 4.8 11.3 0.00 0.00 0.00 1012.8
20260507085104 11 303 3.2 8.0 0.00 0.00 0.00 1012.8
20260507084605 11 302 11.3 11.3 0.00 0.00 0.00 1012.8
20260507084103 11 301 8.0 8.0 0.00 0.00 0.00 1012.8
20260507083604 11 301 3.2 8.0 0.00 0.00 0.00 1012.8
20260507083103 11 300 8.0 8.0 0.00 0.00 0.00 1012.8
20260507081603 11 297 3.2 3.2 0.00 0.00 0.00 1012.8
20260507080604 10 297 8.0 8.0 0.00 0.00 0.00 1012.8
20260507080106 10 295 3.2 8.0 0.00 0.00 0.00 1012.8
20260507075603 10 295 3.2 8.0 0.00 0.00 0.00 1012.8
20260507075103 10 295 4.8 11.3 0.00 0.00 0.00 1012.8
20260507074604 10 294 8.0 11.3 0.00 0.00 0.00 1012.8
20260507074104 10 293 8.0 8.0 0.00 0.00 0.00 1012.8
20260507073106 9 291 1.6 3.2 0.00 0.00 0.00 1012.8
20260507072603 8 291 4.8 8.0 0.00 0.00 0.00 1012.8
20260507071104 8 289 0.0 0.0 0.00 0.00 0.00 1012.8
20260507070604 8 288 0.0 3.2 0.00 0.00 0.00 1012.8
20260507070106 7 288 3.2 3.2 0.00 0.00 0.00 1012.7
20260507065604 7 287 0.0 3.2 0.00 0.00 0.00 1012.7
20260507065104 7 287 3.2 3.2 0.00 0.00 0.00 1012.7
20260507064604 7 286 1.6 3.2 0.00 0.00 0.00 1012.7
20260507064103 7 285 0.0 0.0 0.00 0.00 0.00 1012.7
20260507063605 6 285 0.0 3.2 0.00 0.00 0.00 1012.7
20260507062604 6 285 1.6 3.2 0.00 0.00 0.00 1012.7
20260507062104 6 284 0.0 3.2 0.00 0.00 0.00 1012.7
20260507061604 6 285 3.2 3.2 0.00 0.00 0.00 1012.7
20260507060603 6 284 3.2 3.2 0.00 0.00 0.00 1012.7
20260507060106 6 284 0.0 3.2 0.00 0.00 0.00 1012.5
20260507055104 5 284 0.0 0.0 0.00 0.00 0.00 1012.5
20260507054604 5 284 0.0 3.2 0.00 0.00 0.00 1012.5
20260507053604 5 283 3.2 3.2 0.00 0.00 0.00 1012.5
20260507052604 5 283 0.0 0.0 0.00 0.00 0.00 1012.5
20260507052105 5 283 0.0 0.0 0.00 0.00 0.00 1012.5
20260507051604 5 283 0.0 0.0 0.00 0.00 0.00 1012.5
20260507051104 5 283 0.0 0.0 0.00 0.00 0.00 1012.5
20260507050604 5 283 3.2 3.2 0.00 0.00 0.00 1012.5
20260507050103 5 283 3.2 3.2 0.00 0.00 0.00 1012.5
20260507045604 5 283 0.0 3.2 0.00 0.00 0.00 1012.5
20260507045104 5 283 0.0 3.2 0.00 0.00 0.00 1012.5
20260507044103 5 283 0.0 0.0 0.00 0.00 0.00 1012.5
20260507043604 5 283 0.0 0.0 0.00 0.00 0.00 1012.5
20260507043104 5 283 0.0 3.2 0.00 0.00 0.00 1012.5
20260507042604 5 283 0.0 3.2 0.00 0.00 0.00 1012.5
20260507042105 5 283 3.2 3.2 0.00 0.00 0.00 1012.5
20260507041604 5 283 3.2 3.2 0.00 0.00 0.00 1012.5
20260507041103 5 283 3.2 3.2 0.00 0.00 0.00 1012.5
20260507040104 5 283 1.6 3.2 0.00 0.00 0.00 1012.5
20260507035604 5 283 3.2 3.2 0.00 0.00 0.00 1012.5
20260507035103 5 283 3.2 3.2 0.00 0.00 0.00 1012.5
20260507034605 5 283 0.0 0.0 0.00 0.00 0.00 1012.5
20260507034104 5 283 0.0 0.0 0.00 0.00 0.00 1012.5
20260507033104 5 283 0.0 0.0 0.00 0.00 0.00 1012.5
20260507032605 5 283 0.0 0.0 0.00 0.00 0.00 1012.5
20260507032105 5 284 0.0 0.0 0.00 0.00 0.00 1012.5
20260507031604 5 284 0.0 0.0 0.00 0.00 0.00 1012.5
20260507030604 6 284 3.2 3.2 0.00 0.00 0.00 1012.5
20260507030105 6 284 3.2 3.2 0.00 0.00 0.00 1012.9
20260507025604 6 284 8.0 8.0 0.00 0.00 0.00 1012.9
20260507025104 6 284 3.2 3.2 0.00 0.00 0.00 1012.9
20260507024104 6 284 3.2 3.2 0.00 0.00 0.00 1012.9
20260507023604 6 284 3.2 8.0 0.00 0.00 0.00 1012.9
20260507023104 6 284 3.2 3.2 0.00 0.00 0.00 1012.9
20260507022604 6 284 4.8 8.0 0.00 0.00 0.00 1012.9
20260507022104 6 284 4.8 8.0 0.00 0.00 0.00 1012.9
20260507021604 6 284 3.2 3.2 0.00 0.00 0.00 1012.9
20260507021104 6 284 3.2 8.0 0.00 0.00 0.00 1012.9
20260507020605 6 284 8.0 8.0 0.00 0.00 0.00 1012.9
20260507020105 6 284 8.0 8.0 0.00 0.00 0.00 1012.8
20260507015603 6 284 3.2 3.2 0.00 0.00 0.00 1012.8
20260507015105 6 284 3.2 3.2 0.00 0.00 0.00 1012.8
20260507014604 6 284 3.2 3.2 0.00 0.00 0.00 1012.8
20260507014104 6 284 8.0 8.0 0.00 0.00 0.00 1012.8
20260507013604 6 284 3.2 3.2 0.00 0.00 0.00 1012.8
20260507013104 6 284 4.8 8.0 0.00 0.00 0.00 1012.8
20260507011604 6 284 4.8 8.0 0.00 0.00 0.00 1012.8
20260507010604 6 284 3.2 3.2 0.00 0.00 0.00 1012.8
20260507010104 6 284 3.2 8.0 0.00 0.00 0.00 1012.8
20260507005604 6 284 3.2 3.2 0.00 0.00 0.00 1012.8
20260507005104 6 284 3.2 3.2 0.00 0.00 0.00 1012.8
20260507004603 6 284 4.8 8.0 0.00 0.00 0.00 1012.8
20260507004104 6 284 4.8 8.0 0.00 0.00 0.00 1012.8
20260507003604 6 284 3.2 3.2 0.00 0.00 0.00 1012.8
20260507003104 6 284 3.2 8.0 0.00 0.00 0.00 1012.8
20260507002604 6 284 3.2 3.2 0.00 0.00 0.00 1012.8
20260507001104 6 284 3.2 3.2 0.00 0.00 0.00 1012.8
20260507000604 6 284 3.2 8.0 0.00 0.00 0.00 1012.8
20260507000104 6 284 3.2 8.0 0.00 0.00 0.00 1012.8
20260506235605 6 284 0.0 3.2 0.00 0.00 0.00 1012.8
20260506235104 6 284 3.2 3.2 0.00 0.00 0.00 1012.8
20260506234604 6 284 0.0 3.2 0.00 0.00 0.00 1012.8
20260506234104 6 284 1.6 3.2 0.00 0.00 0.00 1012.8
20260506233604 6 284 0.0 0.0 0.00 0.00 0.00 1012.8
20260506232603 6 284 0.0 8.0 0.00 0.00 0.00 1012.8
20260506231604 6 284 4.8 8.0 0.00 0.00 0.00 1012.8
20260506231104 6 284 3.2 8.0 0.00 0.00 0.00 1012.8
20260506230603 6 285 3.2 8.0 0.00 0.00 0.00 1012.8
20260506225604 6 285 4.8 8.0 0.00 0.00 0.00 1012.7
20260506225103 6 285 3.2 11.3 0.00 0.00 0.00 1012.7
20260506224604 7 285 9.7 11.3 0.00 0.00 0.00 1012.7
20260506222604 7 285 8.0 11.3 0.00 0.00 0.00 1012.7
20260506222104 7 285 3.2 11.3 0.00 0.00 0.00 1012.7
20260506221603 7 285 3.2 11.3 0.00 0.00 0.00 1012.7
20260506221104 7 285 8.0 11.3 0.00 0.00 0.00 1012.7
20260506215606 7 286 3.2 8.0 0.00 0.00 0.00 1012.6
20260506215104 7 286 8.0 8.0 0.00 0.00 0.00 1012.6
20260506214604 7 287 3.2 8.0 0.00 0.00 0.00 1012.6
20260506214103 7 287 1.6 3.2 0.00 0.00 0.00 1012.6
20260506213604 7 287 3.2 3.2 0.00 0.00 0.00 1012.6
20260506213103 7 287 4.8 8.0 0.00 0.00 0.00 1012.6
20260506212604 7 287 4.8 8.0 0.00 0.00 0.00 1012.6
20260506211604 8 288 9.7 14.5 0.00 0.00 0.00 1012.6